Flag for Norway Weather past 2 weeks in Stange, Norway

Now
44 °F

Quite cool.


Feels Like: 44 °F
Forecast: 34 / 48 °F
Wind: 2 mph from Northwest

Location: Haugedalshogda

Current Time: Apr 28, 2015 at 9:28:23 PM

Latest Report: Apr 28, 2015 at 8:00 PM


Visibility: N/A

Pressure: 29.82 "Hg

Humidity: 50%

Dew point: 26 °F

Location of StangeLocation

Historic Weather in Stange — Graph

°F

Stange temperature yesterday

Maximum temperature yesterday: 53 °F (at 4:00 PM)
Minimum temperature yesterday: 17 °F (at 5:00 AM)
Average temperature yesterday: 36 °F

Past Weeks' High & Low Weather Summary

 TemperatureHumidityPressure
High67 °F (Apr 20, 2:00 PM)96% (Apr 15, 3:00 AM)30.42 "Hg (Apr 15, 3:00 AM)
Low17 °F (Apr 27, 5:00 AM)15% (Apr 20, 2:00 PM)29.29 "Hg (Apr 25, 11:00 PM)
Average40 °F60%29.89 "Hg
* Reported Apr 13 8:00 PM — Apr 28 8:00 PM, Stange, Weather by CustomWeather, © 2015

Note: Actual official high and low records may vary slightly from our data, if they occured in-between our weather recording intervals... More about our weather records

Advertising

Stange weather history for previous 24 hours

 ConditionsComfort  
Time TempWeatherWind HumidityBarometerVisibility
8:00 PM
Tue, Apr 28
44 °FQuite cool.2 mph50%29.82 "HgN/A
7:00 PM45 °FCool.2 mph48%29.82 "HgN/A
6:00 PM45 °FQuite cool.2 mph49%29.83 "HgN/A
5:00 PM47 °FCool.8 mph45%29.81 "HgN/A
4:00 PM49 °FCool.3 mph37%29.81 "HgN/A
3:00 PM48 °FCool.3 mph41%29.81 "HgN/A
2:00 PM49 °FCool.2 mph29%29.79 "HgN/A
1:00 PM50 °FCool.3 mph30%29.79 "HgN/A
12:00 PM48 °FCool.3 mph32%29.78 "HgN/A
11:00 AM49 °FCool.2 mph34%29.79 "HgN/A
10:00 AM44 °FQuite cool.2 mph40%29.79 "HgN/A
9:00 AM39 °FChilly.1 mph55%29.79 "HgN/A
8:00 AM35 °FChilly.1 mph74%29.78 "HgN/A
7:00 AM31 °FChilly.1 mph85%29.77 "HgN/A
6:00 AM22 °FCold.1 mph93%29.77 "HgN/A
5:00 AM24 °FCold.1 mph94%29.75 "HgN/A
4:00 AM26 °FChilly.No wind94%29.74 "HgN/A
3:00 AM27 °FChilly.1 mph93%29.72 "HgN/A
2:00 AM29 °FChilly.2 mph91%29.70 "HgN/A
1:00 AM30 °FChilly.1 mph88%29.70 "HgN/A
12:00 AM36 °FChilly.2 mph82%29.67 "HgN/A
11:00 PM
Mon, Apr 27
37 °FChilly.3 mph79%29.66 "HgN/A
10:00 PM38 °FChilly.2 mph71%29.66 "HgN/A
9:00 PM39 °FChilly.3 mph66%29.65 "HgN/A
Weather by CustomWeather, © 2015

See weather overviewHow to use our weather pages